Location: Clanezzo
(45.7500°N, 9.6000°E)
Time: 04:07:25
(UTC+00:00)

SL-24 R/B - RUBIN 2 - Pass Details

Date: 12 May 2021
Orbit: 583 x 1012 km, 64.6° (Epoch: 18 June)

Event Time Altitude Azimuth Distance (km) Brightness Sun altitude
Rises 21:35:59 0° 323° (NW) 3,406 8.8 -21.8°
Reaches altitude 10° 21:38:35 10° 324° (NW) 2,398 7.7 -22.0°
Maximum altitude 21:44:05 88° 50° (NE) 741 3.8 -22.4°
Enters shadow 21:45:03 59° 141° (SE) 832 3.8 -22.5°
